Time,TemperatureF,DewpointF,PressureIn,WindDirection,WindDirectionDegrees,WindSpeedMPH,WindSpeedGustMPH,Humidity,HourlyPrecipIn,Conditions,Clouds,dailyrainin,SoftwareType,DateUTC
2013-10-09 00:14:00,60.0,58.0,30.08,NW,309,1.0,8.0,92,0.00,,,0.84,,2013-10-09 04:14:00,
2013-10-09 00:24:00,60.0,58.0,30.08,NW,314,4.0,10.0,92,0.00,,,0.84,,2013-10-09 04:24:00,
2013-10-09 00:44:00,59.0,57.0,30.07,SE,145,1.0,4.0,93,0.00,,,0.84,,2013-10-09 04:44:00,
2013-10-09 00:54:00,59.0,57.0,30.07,West,276,3.0,12.0,94,0.00,,,0.84,,2013-10-09 04:54:00,
2013-10-09 01:22:00,59.0,57.0,30.07,WNW,288,1.0,4.0,94,0.00,,,0.83,,2013-10-09 05:22:00,
2013-10-09 01:52:00,59.0,58.0,30.07,WNW,302,1.0,5.0,96,0.00,,,0.83,,2013-10-09 05:52:00,
2013-10-09 02:22:00,59.0,58.0,30.07,WNW,298,1.0,6.0,95,0.00,,,0.48,,2013-10-09 06:22:00,
2013-10-09 02:42:00,59.0,57.0,30.07,East,91,1.0,7.0,94,0.00,,,0.48,,2013-10-09 06:42:00,
2013-10-09 02:52:00,59.0,57.0,30.07,WNW,285,0.0,5.0,94,0.00,,,0.48,,2013-10-09 06:52:00,
2013-10-09 03:22:00,59.0,57.0,30.06,NW,309,1.0,4.0,93,0.00,,,0.09,,2013-10-09 07:22:00,
2013-10-09 03:42:00,59.0,57.0,30.06,WNW,291,1.0,3.0,93,0.00,,,0.09,,2013-10-09 07:42:00,
2013-10-09 03:52:00,59.0,57.0,30.06,WSW,256,1.0,4.0,92,0.00,,,0.09,,2013-10-09 07:52:00,
2013-10-09 04:23:00,59.0,57.0,30.06,East,81,1.0,6.0,92,0.00,,,0.07,,2013-10-09 08:23:00,
2013-10-09 04:42:00,59.0,57.0,30.06,NE,55,1.0,4.0,92,0.00,,,0.07,,2013-10-09 08:42:00,
2013-10-09 04:53:00,59.0,57.0,30.06,ENE,61,1.0,10.0,92,0.00,,,0.07,,2013-10-09 08:53:00,
2013-10-09 05:22:00,59.0,57.0,30.07,ESE,112,1.0,3.0,92,0.00,,,0.07,,2013-10-09 09:22:00,
2013-10-09 05:43:00,59.0,57.0,30.08,SSW,205,0.0,5.0,92,0.00,,,0.07,,2013-10-09 09:43:00,
2013-10-09 05:53:00,59.0,56.0,30.08,WSW,255,1.0,3.0,91,0.00,,,0.07,,2013-10-09 09:53:00,
2013-10-09 06:13:00,59.0,57.0,30.08,NW,311,0.0,4.0,92,0.00,,,0.07,,2013-10-09 10:13:00,
2013-10-09 06:23:00,59.0,56.0,30.08,WNW,302,2.0,5.0,91,0.00,,,0.07,,2013-10-09 10:23:00,
2013-10-09 06:43:00,59.0,56.0,30.08,NNE,13,1.0,3.0,91,0.00,,,0.07,,2013-10-09 10:43:00,
2013-10-09 06:53:00,59.0,57.0,30.09,WNW,293,2.0,4.0,92,0.00,,,0.07,,2013-10-09 10:53:00,
2013-10-09 07:22:00,58.0,56.0,30.09,ENE,62,0.0,3.0,92,0.00,,,0.01,,2013-10-09 11:22:00,
2013-10-09 07:52:00,58.0,56.0,30.09,WNW,290,1.0,4.0,93,0.00,,,0.01,,2013-10-09 11:52:00,
2013-10-09 08:12:00,58.0,56.0,30.09,ENE,58,0.0,4.0,93,0.00,,,0.01,,2013-10-09 12:12:00,
2013-10-09 08:22:00,58.0,56.0,30.10,East,89,1.0,7.0,93,0.00,,,0.01,,2013-10-09 12:22:00,
2013-10-09 08:42:00,59.0,56.0,30.10,WNW,301,4.0,8.0,90,0.00,,,0.01,,2013-10-09 12:42:00,
2013-10-09 08:52:00,61.0,57.0,30.11,WNW,302,2.0,6.0,88,0.00,,,0.01,,2013-10-09 12:52:00,
2013-10-09 09:11:00,62.0,58.0,30.11,WSW,240,2.0,7.0,86,0.00,,,0.01,,2013-10-09 13:11:00,
2013-10-09 09:22:00,62.0,57.0,30.11,WNW,300,4.0,11.0,84,0.00,,,0.01,,2013-10-09 13:22:00,
2013-10-09 09:42:00,64.0,59.0,30.11,NW,324,2.0,6.0,83,0.00,,,0.01,,2013-10-09 13:42:00,
2013-10-09 09:52:00,64.0,58.0,30.11,ENE,70,2.0,9.0,82,0.00,,,0.01,,2013-10-09 13:52:00,
2013-10-09 10:11:00,64.0,58.0,30.11,West,259,3.0,8.0,82,0.00,,,0.01,,2013-10-09 14:11:00,
2013-10-09 10:22:00,65.0,59.0,30.11,NW,314,3.0,8.0,81,0.00,,,0.01,,2013-10-09 14:22:00,
2013-10-09 10:42:00,66.0,60.0,30.11,West,261,1.0,7.0,80,0.00,,,0.01,,2013-10-09 14:42:00,
2013-10-09 10:52:00,66.0,60.0,30.11,WNW,284,1.0,10.0,81,0.00,,,0.01,,2013-10-09 14:52:00,
2013-10-09 11:22:00,68.0,61.0,30.10,West,273,2.0,6.0,77,0.00,,,0.01,,2013-10-09 15:22:00,
2013-10-09 11:53:00,68.0,61.0,30.10,ESE,122,2.0,10.0,77,0.00,,,0.01,,2013-10-09 15:53:00,
2013-10-09 12:24:00,70.0,61.0,30.09,NW,307,4.0,10.0,73,0.00,,,0.01,,2013-10-09 16:24:00,
2013-10-09 12:42:00,71.0,62.0,30.09,NW,313,4.0,10.0,74,0.00,,,0.01,,2013-10-09 16:42:00,
2013-10-09 12:53:00,71.0,62.0,30.09,NW,312,4.0,11.0,73,0.00,,,0.01,,2013-10-09 16:53:00,
2013-10-09 13:22:00,73.0,63.0,30.08,WNW,300,3.0,9.0,72,0.00,,,0.01,,2013-10-09 17:22:00,
2013-10-09 13:42:00,74.0,64.0,30.07,WSW,254,1.0,6.0,71,0.00,,,0.01,,2013-10-09 17:42:00,
2013-10-09 13:52:00,74.0,64.0,30.07,WNW,285,4.0,9.0,72,0.00,,,0.01,,2013-10-09 17:52:00,
2013-10-09 14:12:00,75.0,64.0,30.06,WNW,292,2.0,6.0,69,0.00,,,0.01,,2013-10-09 18:12:00,
2013-10-09 14:22:00,75.0,64.0,30.05,East,91,3.0,6.0,68,0.00,,,0.00,,2013-10-09 18:22:00,
2013-10-09 14:42:00,76.0,64.0,30.05,ESE,120,3.0,7.0,67,0.00,,,0.00,,2013-10-09 18:42:00,
2013-10-09 14:52:00,77.0,66.0,30.04,NW,304,2.0,8.0,68,0.00,,,0.00,,2013-10-09 18:52:00,
2013-10-09 15:11:00,77.0,66.0,30.04,WNW,288,3.0,7.0,68,0.00,,,0.00,,2013-10-09 19:11:00,
2013-10-09 15:22:00,77.0,64.0,30.04,WNW,299,4.0,8.0,64,0.00,,,0.00,,2013-10-09 19:22:00,
2013-10-09 15:42:00,77.0,64.0,30.04,West,277,2.0,8.0,65,0.00,,,0.00,,2013-10-09 19:42:00,
2013-10-09 15:53:00,77.0,64.0,30.03,WNW,302,2.0,11.0,65,0.00,,,0.00,,2013-10-09 19:53:00,
2013-10-09 16:22:00,78.0,66.0,30.04,West,278,2.0,7.0,66,0.00,,,0.00,,2013-10-09 20:22:00,
2013-10-09 16:43:00,78.0,64.0,30.03,NW,313,3.0,10.0,63,0.00,,,0.00,,2013-10-09 20:43:00,
2013-10-09 16:52:00,78.0,65.0,30.03,NE,49,2.0,6.0,64,0.00,,,0.00,,2013-10-09 20:52:00,
2013-10-09 17:22:00,78.0,65.0,30.03,NW,315,1.0,7.0,64,0.00,,,0.00,,2013-10-09 21:22:00,
2013-10-09 17:44:00,78.0,65.0,30.03,NE,51,2.0,6.0,64,0.00,,,0.00,,2013-10-09 21:44:00,
2013-10-09 17:54:00,78.0,65.0,30.03,East,82,1.0,5.0,65,0.00,,,0.00,,2013-10-09 21:54:00,
2013-10-09 18:24:00,76.0,65.0,30.03,ENE,77,0.0,5.0,69,0.00,,,0.00,,2013-10-09 22:24:00,
2013-10-09 18:43:00,75.0,65.0,30.03,ESE,105,0.0,0.0,71,0.00,,,0.00,,2013-10-09 22:43:00,
2013-10-09 18:53:00,73.0,65.0,30.03,ENE,61,0.0,0.0,75,0.00,,,0.00,,2013-10-09 22:53:00,
2013-10-09 19:12:00,72.0,65.0,30.03,ENE,65,0.0,0.0,78,0.00,,,0.00,,2013-10-09 23:12:00,
2013-10-09 19:22:00,70.0,65.0,30.03,ENE,65,0.0,0.0,83,0.00,,,0.00,,2013-10-09 23:22:00,
2013-10-09 19:53:00,68.0,65.0,30.04,ENE,65,0.0,0.0,89,0.00,,,0.00,,2013-10-09 23:53:00,
2013-10-09 20:12:00,67.0,64.0,30.04,ENE,65,0.0,0.0,90,0.00,,,0.00,,2013-10-10 00:12:00,
2013-10-09 20:22:00,66.0,63.0,30.05,ENE,65,0.0,0.0,91,0.00,,,0.00,,2013-10-10 00:22:00,
2013-10-09 20:42:00,66.0,64.0,30.05,ENE,65,0.0,0.0,92,0.00,,,0.00,,2013-10-10 00:42:00,
2013-10-09 20:52:00,65.0,63.0,30.05,ENE,65,0.0,0.0,92,0.00,,,0.00,,2013-10-10 00:52:00,
2013-10-09 21:11:00,65.0,63.0,30.06,ENE,65,0.0,0.0,93,0.00,,,0.00,,2013-10-10 01:11:00,
2013-10-09 21:21:00,64.0,62.0,30.06,ENE,65,0.0,0.0,94,0.00,,,0.00,,2013-10-10 01:21:00,
2013-10-09 21:42:00,64.0,62.0,30.06,ENE,65,0.0,0.0,94,0.00,,,0.00,,2013-10-10 01:42:00,
2013-10-09 21:52:00,64.0,63.0,30.06,ENE,65,0.0,0.0,95,0.00,,,0.00,,2013-10-10 01:52:00,
2013-10-09 22:12:00,63.0,62.0,30.07,ENE,65,0.0,0.0,95,0.00,,,0.00,,2013-10-10 02:12:00,
2013-10-09 22:22:00,63.0,62.0,30.07,ENE,65,0.0,0.0,95,0.00,,,0.00,,2013-10-10 02:22:00,
2013-10-09 23:22:00,63.0,62.0,30.07,NE,41,0.0,2.0,96,0.00,,,0.00,,2013-10-10 03:22:00,
2013-10-09 23:44:00,63.0,62.0,30.08,ENE,70,0.0,2.0,96,0.00,,,0.00,,2013-10-10 03:44:00,
2013-10-09 23:55:00,63.0,62.0,30.07,ENE,67,0.0,2.0,95,0.00,,,0.00,,2013-10-10 03:55:00,